weather.gov     
National Weather Service

Terminal Aerodrome Forecast
NWS Homepage
This page is being discontinued on March 12, 2014.
The same data is available at this site. Please update your bookmarks.
Thank you, and we apologize for the inconvenience.
Please send an email to SR-SRH.Webmaster@noaa.gov with any concerns.


Current Version
Previous Version:    01  02  03  04  05  06  07  08  09  10  11  12  13  14  
[Printable]
741
FTUS41 KBOX 271127
TAFMHT
TAF
KMHT 271127Z 2712/2812 33006KT P6SM OVC080
     FM271500 31006KT P6SM BKN040
     FM280000 34004KT P6SM OVC025
     FM280600 VRB03KT 3SM BR OVC025
     FM281100 33004KT P6SM BKN030=


741
FTUS41 KBOX 271127
TAFMHT
TAF
KMHT 271127Z 2712/2812 33006KT P6SM OVC080
     FM271500 31006KT P6SM BKN040
     FM280000 34004KT P6SM OVC025
     FM280600 VRB03KT 3SM BR OVC025
     FM281100 33004KT P6SM BKN030=




U.S. Dept. of Commerce
NOAA National Weather Service
1325 East West Highway
Silver Spring, MD 20910
E-mail: w-nws.webmaster@noaa.gov
Page last modified: May 16, 2007
NATIONAL WEATHER SERVICE: for Safety, for Work, for Fun - FOR LIFE